Wind_Speed
10 11 11 13 13 13 13 14 14 15 13 12 10 7 7 7 8 8 3 2 1 1 1 3 2 3 3 1 6 7 10 13 12 11 19 8 8 8 5 5 9 7 5 6 8
11 11 11 12 12 11 11 11 11 12 12 13 13 13 12 10 9 9 6 5 4 2 2 5 3 2 1 6 3 5 6 8 13 8 11 16 11 8 4 6 8 8 4 9 8
9 9 8 8 9 9 10 10 10 11 11 12 13 14 13 13 11 8 6 5 7 5 4 5 3 2 3 4 1 5 3 4 6 7 4 10 10 8 5 6 6 8 2 5 8
6 5 5 5 7 9 10 10 10 11 12 13 14 14 14 14 12 12 10 8 8 7 6 5 3 4 3 2 3 3 1 3 5 4 3 11 14 11 9 10 6 6 3 6 9
4 4 3 4 5 8 9 10 10 11 13 14 15 16 15 15 14 13 13 10 8 8 7 5 3 3 3 6 4 7 4 1 3 6 6 17 16 15 14 12 8 6 6 8 10
3 4 5 5 6 6 7 9 10 11 14 15 16 16 17 17 16 14 13 12 10 7 6 7 5 5 6 8 5 3 3 2 5 9 13 15 17 14 9 11 6 3 7 11 8
1 3 5 6 6 6 7 8 8 11 15 18 18 18 18 18 17 17 15 12 12 10 5 6 9 8 9 8 8 8 5 5 8 11 10 7 11 7 7 9 8 5 9 10 9
5 6 7 7 7 8 9 9 10 11 15 18 20 20 20 19 17 17 16 14 13 11 8 10 11 12 11 11 10 12 10 6 5 9 8 7 11 10 10 15 11 9 10 11 8
10 10 11 11 11 13 12 12 12 12 14 16 20 21 21 20 18 15 14 13 13 11 10 12 13 14 14 13 13 14 14 7 4 6 7 11 8 10 8 16 13 9 6 8 8
14 15 15 15 15 16 17 16 15 14 14 16 20 22 23 22 18 14 13 11 11 10 11 12 12 14 15 15 15 15 13 8 6 6 7 7 8 6 9 14 12 7 11 9 9
15 15 16 16 16 17 18 18 17 16 15 16 18 22 24 21 18 14 12 10 10 10 12 12 13 13 17 19 16 16 14 12 9 6 8 9 9 8 9 11 5 6 12 7 8
18 18 18 17 17 17 19 19 18 19 17 16 16 21 23 23 19 17 14 11 11 11 12 14 12 16 18 18 19 18 16 15 13 7 10 9 8 9 8 8 7 6 11 12 11
22 22 21 20 19 18 19 20 19 19 19 18 18 21 22 23 21 17 15 13 12 13 14 15 19 20 20 21 20 19 15 18 17 14 14 14 8 7 7 8 7 5 6 8 14
23 24 23 22 20 18 19 20 19 19 20 20 20 20 22 23 22 19 14 12 12 12 14 16 18 20 21 19 17 15 15 19 17 15 15 15 10 9 12 9 8 7 6 7 11
23 25 24 24 23 20 21 20 19 19 21 24 21 20 21 22 21 16 12 11 10 11 13 14 15 16 19 13 13 13 15 16 16 16 17 16 15 15 12 11 9 8 7 7 6
29 28 30 28 26 25 26 24 23 22 23 24 24 22 20 21 19 15 11 9 10 12 14 15 15 14 16 18 16 15 15 13 14 16 13 18 20 17 18 19 19 16 12 10 12
32 29 29 31 31 31 32 31 29 26 25 25 25 23 20 18 18 14 11 9 10 12 13 12 10 13 15 16 17 15 13 14 15 17 15 19 20 17 18 21 23 23 22 17 16
32 30 30 31 24 25 29 31 30 28 29 26 24 22 21 16 16 11 9 7 9 10 11 12 11 15 15 14 13 15 17 14 14 15 15 22 22 20 21 22 24 22 21 24 22
27 25 23 23 28 28 29 27 21 26 30 26 23 23 22 16 15 10 9 8 8 8 10 9 8 7 8 10 11 12 18 17 17 15 15 16 15 14 12 12 14 18 18 21 23
25 24 24 23 24 25 26 22 23 24 28 26 25 24 22 20 16 15 10 8 9 8 11 11 9 10 11 12 14 16 17 19 19 18 14 9 7 8 10 14 14 14 17 18 23
25 25 25 26 26 26 25 23 24 25 28 28 26 26 24 24 18 18 15 12 12 14 13 12 13 14 14 13 12 10 9 12 12 12 13 10 7 9 9 9 15 19 18 17 18
27 26 26 26 27 26 26 25 26 28 29 32 30 29 27 28 22 20 15 14 14 14 13 16 15 15 18 16 12 8 7 7 9 10 11 12 9 13 12 12 13 15 19 23 21
30 30 29 29 28 27 26 27 26 29 33 34 35 32 31 31 27 22 20 16 16 18 15 17 16 12 13 15 16 13 11 10 13 12 11 13 9 10 16 17 14 16 18 19 23
33 35 33 32 30 29 28 29 31 31 32 34 34 36 35 33 31 28 24 21 18 20 21 20 18 16 11 11 14 12 11 11 15 17 15 12 10 13 16 16 17 19 15 15 17
38 38 37 35 34 33 32 33 33 33 34 37 36 38 39 39 37 31 30 26 24 22 21 21 20 18 14 14 14 15 14 14 15 18 17 16 17 16 15 15 14 13 11 11 13
39 39 39 38 37 34 34 34 36 36 36 38 39 40 42 42 43 40 36 33 28 28 25 24 23 21 19 19 19 20 21 17 16 16 15 16 17 15 15 15 13 11 11 15 14
43 41 40 39 39 39 37 35 37 39 40 41 42 43 45 45 47 45 43 37 32 31 31 30 26 25 24 23 23 24 16 16 15 15 16 16 18 17 15 15 15 13 14 14 14
Wind_Direction
74 75 69 68 67 63 56 52 50 48 44 39 31 3 332 309 294 285 285 290 290 312 270 291 331 22 49 51 63 48 35 25 358 212 209 250 161 102 88 102 100 108 118 127 123
74 75 70 70 60 53 48 42 38 35 30 27 22 15 6 355 332 312 294 261 243 237 226 253 284 24 18 68 23 49 27 22 40 139 146 154 154 113 134 124 106 111 121 138 132
74 71 73 63 45 35 28 25 22 20 18 15 10 5 3 357 345 334 313 268 252 234 228 256 276 282 293 28 294 336 47 38 47 82 127 159 153 142 149 126 120 96 120 142 130
64 61 55 38 24 21 20 17 15 15 14 8 5 1 355 349 345 336 320 296 263 247 229 233 246 245 256 270 298 27 111 13 21 50 94 181 169 150 147 119 118 114 138 123 135
33 28 22 7 6 4 2 2 5 3 1 359 358 355 347 341 338 333 324 310 285 261 240 223 216 218 203 240 216 78 78 345 57 42 187 177 162 151 140 125 110 127 156 153 147
42 15 6 359 357 359 2 358 353 349 350 351 349 346 342 337 330 327 321 311 295 265 239 216 203 205 211 210 204 108 116 107 88 79 91 152 145 147 161 188 177 170 153 144 121
312 323 327 334 339 343 335 343 343 348 353 350 346 341 336 331 326 321 315 306 292 271 230 216 203 197 204 203 208 234 203 159 117 112 119 137 141 121 174 194 183 190 166 160 142
287 283 297 304 301 302 309 319 326 334 343 348 345 340 336 329 322 316 312 303 292 281 232 217 211 211 202 202 204 179 191 169 132 119 124 130 161 158 157 162 182 179 170 158 137
292 292 287 284 288 289 289 291 299 309 321 336 345 342 338 334 326 317 308 299 288 280 248 225 217 211 212 208 198 195 189 185 162 143 126 143 151 190 153 159 161 167 166 161 143
295 293 293 291 289 290 291 288 285 293 311 323 338 341 341 333 327 317 309 296 290 268 246 237 221 216 211 214 208 209 205 202 208 200 185 150 148 154 198 181 173 179 190 155 170
309 305 301 298 297 295 291 289 286 286 295 309 330 336 337 339 333 321 305 295 287 263 245 239 225 218 210 218 214 206 202 209 222 214 188 163 134 129 137 167 172 174 174 173 181
304 303 301 300 297 296 293 291 290 289 288 300 317 328 335 342 334 325 313 296 278 256 243 230 214 212 211 217 216 217 210 203 209 233 190 189 168 152 159 166 186 183 193 204 215
298 298 299 297 298 298 294 293 293 292 291 295 306 318 330 336 333 328 307 292 272 246 233 222 211 213 213 216 216 216 209 215 220 233 239 215 232 225 198 176 186 190 213 211 217
294 293 294 295 294 293 289 290 291 292 293 294 301 311 322 328 333 326 308 287 255 241 235 229 225 220 219 221 218 216 206 217 222 231 230 226 216 220 220 217 214 200 199 227 225
286 286 287 288 288 286 284 287 289 289 291 293 300 307 317 322 327 324 305 288 256 236 225 220 218 220 224 227 220 213 214 220 218 226 228 237 241 236 225 222 234 233 235 216 222
283 282 282 281 281 281 279 279 281 281 285 290 296 302 307 313 320 323 300 282 245 225 220 215 215 214 214 221 221 225 223 230 236 241 244 245 237 246 254 255 254 253 248 235 234
283 281 280 281 274 274 274 272 271 274 279 282 288 294 297 303 310 313 300 272 229 218 219 206 200 214 219 224 224 230 234 240 243 247 236 243 240 246 252 266 269 266 260 249 235
283 283 280 278 276 275 276 274 271 271 272 274 279 280 283 292 297 302 288 258 227 207 208 199 209 211 215 218 230 237 244 244 252 253 243 240 249 251 260 264 259 263 263 257 251
283 284 282 277 272 272 273 276 276 263 263 264 264 264 268 277 277 274 269 239 205 179 187 185 202 206 208 205 224 246 250 265 270 253 234 239 248 250 246 254 255 260 262 262 260
285 284 283 281 279 276 274 275 270 264 259 254 251 255 256 259 261 263 253 239 206 205 198 202 219 214 222 230 252 268 260 254 259 257 257 242 244 258 252 256 261 265 275 270 270
291 288 287 282 281 280 275 268 258 256 256 252 246 249 248 251 251 263 264 239 224 216 214 220 219 228 228 230 249 259 252 252 253 253 257 261 246 254 266 266 260 259 259 261 265
294 293 291 290 282 278 272 263 259 256 255 255 247 246 246 250 248 252 259 252 226 223 223 217 231 240 245 226 226 240 255 264 267 264 261 270 269 263 278 269 262 271 271 258 253
297 296 295 292 284 277 269 263 254 251 253 255 254 250 248 247 246 243 252 247 252 228 225 228 231 236 233 234 235 237 251 260 262 259 250 269 290 270 275 280 266 287 291 265 246
296 296 295 289 282 276 268 263 258 251 247 251 252 250 252 250 248 243 248 252 245 237 230 236 234 239 243 237 238 244 253 261 263 252 259 266 275 279 283 274 269 285 288 270 249
294 293 293 287 280 274 266 261 254 250 245 245 244 243 243 243 246 245 246 250 258 248 246 237 242 244 245 252 259 264 255 264 266 249 250 256 263 269 281 287 278 283 283 259 262
294 292 288 284 280 274 267 257 252 247 244 242 241 240 239 236 238 241 239 241 250 256 259 252 246 251 256 257 260 262 257 265 267 250 249 254 262 271 271 274 267 259 266 269 271
291 287 285 285 283 278 269 258 251 248 243 241 240 239 240 233 233 236 239 241 248 248 252 258 257 259 261 265 268 259 274 260 255 256 257 266 271 271 272 261 263 261 264 275 275
Height
5882 5882 5882 5882 5882 5882 5882 5881 5881 5880 5880 5880 5879 5879 5879 5879 5879 5879 5881 5882 5882 5882 5883 5882 5882 5882 5882 5882 5881 5880 5879 5877 5876 5877 5880 5883 5885 5885 5886 5885 5885 5885 5885 5885 5885
5884 5884 5884 5884 5884 5884 5883 5883 5882 5882 5881 5880 5880 5879 5879 5878 5877 5877 5880 5880 5881 5882 5882 5882 5882 5883 5882 5883 5882 5881 5880 5878 5878 5875 5879 5880 5883 5883 5886 5885 5885 5884 5885 5885 5886
5885 5885 5886 5886 5885 5885 5884 5884 5883 5883 5882 5881 5880 5879 5879 5878 5877 5877 5877 5878 5879 5881 5882 5881 5882 5882 5882 5882 5882 5881 5881 5880 5879 5877 5879 5881 5881 5883 5885 5885 5885 5885 5886 5886 5886
5887 5887 5887 5887 5886 5886 5885 5885 5884 5883 5883 5882 5881 5879 5878 5877 5878 5876 5876 5877 5877 5879 5881 5881 5881 5882 5882 5882 5882 5881 5881 5881 5881 5879 5878 5880 5882 5884 5886 5885 5885 5885 5887 5887 5887
5887 5887 5887 5887 5887 5886 5886 5885 5884 5883 5882 5881 5880 5879 5878 5877 5875 5874 5874 5874 5875 5877 5878 5880 5880 5881 5881 5881 5883 5881 5881 5882 5880 5877 5874 5876 5880 5884 5885 5885 5885 5886 5887 5888 5888
5887 5887 5887 5887 5887 5886 5885 5884 5884 5883 5882 5880 5879 5878 5877 5876 5873 5872 5872 5872 5873 5875 5877 5878 5880 5879 5879 5880 5882 5882 5882 5882 5880 5878 5876 5880 5881 5884 5884 5884 5885 5887 5888 5889 5889
5887 5887 5887 5886 5886 5886 5885 5884 5883 5882 5881 5879 5878 5876 5875 5874 5871 5870 5869 5869 5870 5871 5875 5876 5878 5878 5878 5880 5880 5881 5882 5882 5880 5880 5879 5881 5881 5882 5882 5883 5885 5887 5888 5889 5889
5886 5886 5886 5885 5885 5884 5883 5882 5881 5880 5879 5878 5876 5874 5872 5871 5869 5867 5866 5866 5867 5868 5871 5873 5875 5876 5877 5878 5879 5880 5883 5883 5881 5881 5882 5883 5882 5882 5882 5882 5884 5887 5888 5887 5889
5884 5884 5883 5883 5883 5881 5880 5880 5879 5878 5877 5876 5875 5872 5870 5868 5866 5864 5863 5863 5863 5865 5867 5869 5872 5874 5875 5876 5878 5879 5880 5881 5882 5882 5883 5882 5883 5883 5882 5882 5884 5887 5888 5888 5888
5882 5881 5881 5880 5880 5878 5878 5877 5876 5875 5875 5873 5871 5871 5868 5865 5862 5860 5859 5859 5860 5862 5864 5866 5869 5871 5872 5874 5875 5877 5878 5880 5881 5883 5882 5884 5883 5882 5882 5882 5883 5885 5886 5887 5889
5879 5878 5877 5877 5877 5875 5874 5874 5874 5873 5872 5871 5869 5867 5865 5862 5859 5857 5856 5856 5857 5858 5860 5862 5865 5867 5868 5870 5873 5874 5876 5878 5879 5880 5882 5882 5883 5884 5882 5884 5884 5883 5886 5887 5889
5875 5875 5874 5873 5873 5872 5870 5869 5869 5869 5868 5867 5866 5864 5862 5859 5857 5854 5853 5853 5854 5854 5856 5859 5861 5862 5865 5867 5869 5871 5874 5877 5878 5879 5881 5882 5882 5884 5884 5884 5884 5884 5885 5886 5888
5872 5871 5870 5869 5869 5869 5866 5866 5865 5864 5863 5863 5862 5861 5859 5857 5854 5852 5850 5849 5850 5851 5852 5854 5856 5858 5860 5863 5866 5868 5872 5874 5876 5877 5879 5882 5883 5884 5885 5885 5886 5886 5886 5886 5886
5868 5866 5866 5865 5866 5864 5862 5861 5861 5861 5859 5859 5858 5857 5856 5853 5851 5849 5847 5847 5846 5847 5848 5850 5852 5854 5856 5859 5864 5867 5869 5870 5873 5875 5876 5878 5881 5882 5883 5883 5884 5886 5885 5885 5885
5863 5861 5861 5860 5860 5860 5859 5858 5858 5857 5856 5855 5854 5852 5851 5851 5849 5846 5845 5844 5844 5844 5846 5848 5849 5852 5854 5858 5861 5864 5866 5868 5870 5871 5874 5876 5878 5879 5881 5882 5882 5882 5883 5884 5883
5855 5855 5853 5854 5854 5854 5852 5853 5853 5854 5851 5850 5849 5848 5848 5846 5844 5844 5842 5842 5842 5842 5843 5845 5847 5849 5852 5853 5857 5860 5863 5865 5867 5868 5872 5872 5874 5875 5876 5877 5877 5878 5880 5881 5881
5846 5847 5846 5845 5846 5845 5845 5846 5848 5847 5847 5846 5844 5844 5844 5843 5841 5840 5840 5839 5840 5840 5841 5844 5846 5848 5850 5852 5855 5858 5861 5863 5865 5866 5869 5868 5870 5873 5873 5872 5873 5874 5875 5877 5878
5838 5839 5839 5838 5838 5838 5837 5838 5840 5841 5840 5840 5841 5839 5839 5840 5839 5838 5838 5838 5838 5838 5840 5842 5845 5846 5848 5851 5854 5856 5858 5861 5861 5863 5865 5864 5866 5869 5868 5868 5868 5870 5871 5872 5874
5830 5831 5830 5830 5830 5830 5830 5831 5833 5832 5832 5834 5835 5835 5835 5836 5837 5837 5837 5837 5838 5838 5841 5842 5844 5846 5847 5849 5852 5854 5855 5857 5857 5859 5860 5861 5863 5865 5864 5864 5864 5864 5866 5867 5870
5824 5824 5824 5823 5823 5823 5823 5825 5824 5824 5824 5827 5829 5830 5831 5832 5834 5834 5835 5837 5838 5839 5840 5842 5843 5845 5847 5848 5850 5851 5853 5853 5853 5854 5856 5858 5859 5859 5860 5860 5861 5862 5862 5864 5864
5819 5818 5817 5816 5816 5816 5816 5817 5816 5816 5816 5819 5822 5824 5826 5827 5830 5831 5833 5835 5836 5837 5839 5841 5842 5845 5846 5847 5847 5848 5848 5849 5850 5851 5853 5854 5857 5856 5856 5857 5856 5856 5857 5859 5860
5811 5811 5809 5808 5808 5807 5808 5808 5809 5809 5809 5810 5814 5818 5819 5820 5824 5828 5831 5831 5833 5835 5836 5838 5840 5841 5842 5844 5844 5845 5846 5847 5848 5850 5850 5851 5854 5852 5852 5852 5852 5851 5851 5853 5854
5803 5802 5800 5799 5799 5798 5799 5799 5799 5800 5801 5802 5804 5809 5812 5814 5818 5822 5825 5828 5829 5831 5833 5835 5836 5838 5839 5841 5842 5843 5844 5845 5845 5846 5846 5847 5849 5847 5847 5846 5847 5846 5845 5844 5846
5794 5792 5792 5790 5789 5789 5789 5789 5790 5791 5792 5793 5798 5799 5803 5808 5811 5815 5819 5823 5825 5827 5829 5831 5832 5834 5836 5837 5838 5839 5840 5841 5841 5841 5842 5843 5843 5843 5842 5841 5841 5840 5839 5838 5839
5783 5781 5779 5779 5778 5778 5779 5779 5780 5781 5783 5784 5787 5790 5794 5799 5803 5809 5811 5815 5818 5821 5824 5826 5828 5830 5831 5832 5834 5834 5835 5836 5836 5836 5837 5838 5838 5838 5837 5836 5835 5835 5835 5835 5834
5772 5770 5767 5766 5766 5766 5767 5767 5768 5769 5771 5774 5777 5778 5782 5790 5794 5799 5803 5806 5811 5814 5817 5820 5822 5824 5826 5828 5828 5828 5829 5830 5830 5831 5832 5832 5832 5833 5832 5831 5830 5831 5832 5831 5830
5760 5758 5756 5754 5753 5752 5753 5755 5756 5757 5759 5761 5764 5768 5770 5778 5783 5789 5793 5799 5803 5806 5809 5812 5816 5818 5820 5821 5822 5821 5824 5824 5825 5826 5826 5826 5826 5827 5827 5827 5825 5827 5827 5827 5826